SL-16 R/B (25407 NORAD) Tracking and Keplerian Element Data

This shows tracking and keplerian element data for the satellite.

Feedback or suggestion? Click here.




ElementValue
Catalog25407
NameSL-16 R/B
Epoch Orbit21310
Epoch Day16.05173775
Epoch Year2022
RAAN123.6734
Inclination71.0115
Eccentricity0.0007641
Argument of Perigee189.9852
Mean Anonmoly170.1121
Mean Motion14.15846834
Decay Rate1.52E-06
L11 25407U 98045B 22016.05173775 .00000152 00000+0 10164-3 0 9992
L22 25407 71.0115 123.6734 0007641 189.9852 170.1121 14.15846834213105

Live tracking and technical data element details for SL-16 R/B (NORAD 25407). SL-16 R/B can be tracked NOW for your location showing map with azimuth and elevation plus other details from your city location.

Track the satellite on the map from your city or location and see movement details for azimuth, elevation, latitude, longitude, range, height, and movement on the map or in text.







IsCatalogInMostPopularTable: catalog: 25407, numindb: 491
Update: records affected: 1



GetName: 25407 SL-16 R/B

Hit Count: updated at: Mon, 17 Jan 2022 02:16:22 GMT